Location: Kikino
(54.4440°N, 112.0940°W)
Time: 19:13:47
(UTC+00:00)

A-11 Canister half - Pass Details

Date: 21 May 2024
Orbit: 1525 x 1683 km, 47.3° (Epoch: 12 June)

Event Time Altitude Azimuth Distance (km) Brightness Sun altitude
Rises 11:32:41 0° 284° (WNW) 4,807 11.2 1.5°
Reaches altitude 10° 11:36:25 10° 273° (W) 3,844 10.6 1.9°
Maximum altitude 11:43:55 26° 222° (SW) 2,834 9.9 2.9°
Drops below altitude 10° 11:51:34 10° 172° (S) 3,917 10.9 3.8°
Sets 11:55:27 0° 160° (SSE) 4,915 11.5 4.3°
